Location: Kellogg
(38.0159°N, 90.0546°W)
Time: 01:01:42
(UTC+00:00)

Transit 2A - Pass Details

Date: 13 September 2024
Orbit: 590 x 960 km, 66.7° (Epoch: 09 October)

Event Time Altitude Azimuth Distance (km) Brightness Sun altitude
Rises 09:24:24 0° 337° (NNW) 3,635 9.6 -26.4°
Reaches altitude 10° 09:27:10 10° 344° (NNW) 2,664 8.9 -26.0°
Maximum altitude 09:33:05 43° 55° (NE) 1,250 7.5 -24.9°
Drops below altitude 10° 09:38:33 10° 126° (SE) 2,472 9.0 -24.0°
Sets 09:41:02 0° 133° (SE) 3,347 9.6 -23.5°
